Rice Lake, WI

6:26 AM CDT on April 23, 2017 (GMT -0500)
Rice Lake Regional-Carl's

Weather History for KRPD - May, 2014

Change the Weather History Date:

Saturday, May 17, 2014

  Actual Average Record
Temperature  
Mean Temperature 48 °F -  
Max Temperature 62 °F 63 °F 78 °F (2001)
Min Temperature 33 °F 42 °F 30 °F (2007)
Degree Days  
Heating Degree Days 18    
Moisture  
Dew Point 30 °F    
Average Humidity 53    
Maximum Humidity 89    
Minimum Humidity 23    
Precipitation  
Precipitation 0.00 in - - ()
Sea Level Pressure  
Sea Level Pressure 30.01 in    
Wind  
Wind Speed 3 mph (WSW)    
Max Wind Speed 14 mph    
Max Gust Speed 21 mph    
Visibility 10 miles    
Events      
Averages and records for this station are not official NWS values.
T = Trace of Precipitation, MM = Missing Value Source: NWS Daily Summary

Daily Weather History Graph

Daily Weather History Graph

Search for Another Location

Airport or City:

Trip Planner

Search our weather history database for the weather conditions in past years. The results will help you decide how hot, cold, wet, or windy it might be!

Date:

Astronomy

May. 17, 2014 Rise Set
Actual Time 5:34 AM CDT 8:33 PM CDT
Civil Twilight 4:59 AM CDT 9:08 PM CDT
Nautical Twilight 4:15 AM CDT 9:52 PM CDT
Astronomical Twilight 3:22 AM CDT 10:46 PM CDT
Moon 11:32 PM CDT (5/17) 8:18 AM CDT (5/17)
Length of Visible Light 16h 08m
Length of Day
14h 58m
Waning Gibbous, 89% of the Moon is Illuminated
May 17
Waning Gibbous
May 21
Last Quarter
May 28
New
Jun 5
First Quarter
Jun 12
Full

Hourly Weather History & Observations

Time (CDT) Temp. Windchill Dew Point Humidity Pressure Visibility Wind Dir Wind Speed Gust Speed Precip Events Conditions
12:15 AM 36.7 °F - 30.6 °F 78% 30.03 in 10.0 mi Calm Calm - N/A   Clear
12:35 AM 35.8 °F - 29.1 °F 77% 30.03 in 10.0 mi Calm Calm - N/A   Mostly Cloudy
12:55 AM 35.8 °F - 30.0 °F 80% 30.03 in 10.0 mi Calm Calm - N/A   Overcast
1:15 AM 36.1 °F - 31.5 °F 83% 30.03 in 10.0 mi Calm Calm - N/A   Scattered Clouds
1:35 AM 35.8 °F - 31.8 °F 86% 30.03 in 10.0 mi Calm Calm - N/A   Clear
1:55 AM 35.6 °F - 29.8 °F 80% 30.03 in 10.0 mi Calm Calm - N/A   Clear
2:15 AM 35.2 °F - 30.2 °F 82% 30.03 in 10.0 mi Calm Calm - N/A   Clear
2:35 AM 36.3 °F - 29.7 °F 77% 30.03 in 10.0 mi Calm Calm - N/A   Clear
2:55 AM 34.5 °F - 29.5 °F 82% 30.03 in 10.0 mi Calm Calm - N/A   Clear
3:15 AM 33.8 °F - 29.8 °F 85% 30.03 in 10.0 mi Calm Calm - N/A   Clear
3:35 AM 33.6 °F - 30.0 °F 87% 30.03 in 10.0 mi Calm Calm - N/A   Clear
3:55 AM 33.3 °F - 29.8 °F 87% 30.03 in 10.0 mi Calm Calm - N/A   Clear
4:15 AM 33.1 °F - 30.0 °F 89% 30.03 in 10.0 mi Calm Calm - N/A   Clear
4:35 AM 33.3 °F - 30.4 °F 89% 30.03 in 10.0 mi Calm Calm - N/A   Mostly Cloudy
4:55 AM 33.3 °F - 29.7 °F 87% 30.03 in 10.0 mi Calm Calm - N/A   Overcast
5:15 AM 35.1 °F - 30.2 °F 82% 30.03 in 10.0 mi Calm Calm - N/A   Overcast
5:35 AM 34.3 °F - 30.4 °F 85% 30.03 in 10.0 mi Calm Calm - N/A   Mostly Cloudy
5:55 AM 33.4 °F - 30.0 °F 87% 30.03 in 10.0 mi Calm Calm - N/A   Mostly Cloudy
6:15 AM 34.2 °F - 30.4 °F 86% 30.03 in 10.0 mi Calm Calm - N/A   Mostly Cloudy
6:35 AM 34.9 °F - 31.1 °F 86% 30.03 in 10.0 mi Calm Calm - N/A   Mostly Cloudy
6:55 AM 37.0 °F - 33.6 °F 87% 30.03 in 10.0 mi Calm Calm - N/A   Overcast
7:15 AM 40.1 °F - 33.1 °F 76% 30.03 in 10.0 mi Calm Calm - N/A   Overcast
7:35 AM 41.4 °F - 34.7 °F 77% 30.03 in 10.0 mi Calm Calm - N/A   Scattered Clouds
7:55 AM 43.9 °F 39.3 °F 34.2 °F 69% 30.04 in 10.0 mi West 8.1 mph - N/A   Mostly Cloudy
8:15 AM 45.3 °F 41.6 °F 33.8 °F 64% 30.03 in 10.0 mi West 6.9 mph - N/A   Scattered Clouds
8:35 AM 47.5 °F - 33.8 °F 59% 30.03 in 10.0 mi West 10.4 mph - N/A   Clear
8:55 AM 49.1 °F - 32.5 °F 53% 30.03 in 10.0 mi West 8.1 mph - N/A   Clear
9:15 AM 51.1 °F - 33.3 °F 51% 30.03 in 10.0 mi West 10.4 mph - N/A   Scattered Clouds
9:35 AM 52.3 °F - 32.9 °F 48% 30.03 in 10.0 mi WSW 10.4 mph - N/A   Scattered Clouds
9:55 AM 53.8 °F - 32.9 °F 45% 30.03 in 10.0 mi West 10.4 mph - N/A   Scattered Clouds
10:15 AM 54.7 °F - 32.2 °F 42% 30.03 in 10.0 mi West 11.5 mph - N/A   Scattered Clouds
10:35 AM 55.4 °F - 32.2 °F 41% 30.03 in 10.0 mi WSW 10.4 mph - N/A   Clear
10:55 AM 56.3 °F - 31.3 °F 39% 30.02 in 10.0 mi West 9.2 mph 16.1 mph N/A   Scattered Clouds
11:15 AM 56.3 °F - 30.2 °F 37% 30.02 in 10.0 mi West 10.4 mph 20.7 mph N/A   Mostly Cloudy
11:35 AM 56.3 °F - 28.9 °F 35% 30.02 in 10.0 mi West 11.5 mph 20.7 mph N/A   Overcast
11:55 AM 58.5 °F - 28.8 °F 32% 30.02 in 10.0 mi WSW 6.9 mph - N/A   Mostly Cloudy
12:15 PM 57.9 °F - 27.7 °F 32% 30.02 in 10.0 mi West 13.8 mph - N/A   Mostly Cloudy
12:35 PM 59.2 °F - 29.5 °F 32% 30.01 in 10.0 mi West 10.4 mph 16.1 mph N/A   Scattered Clouds
12:55 PM 58.5 °F - 28.6 °F 32% 30.01 in 10.0 mi West 11.5 mph - N/A   Mostly Cloudy
1:15 PM 59.2 °F - 28.6 °F 31% 30.01 in 10.0 mi WSW 9.2 mph - N/A   Mostly Cloudy
1:55 PM 59.7 °F - 26.1 °F 28% 30.01 in 10.0 mi West 13.8 mph - N/A   Scattered Clouds
2:15 PM 60.4 °F - 26.2 °F 27% 30.00 in 10.0 mi SW 10.4 mph - N/A   Scattered Clouds
2:35 PM 60.6 °F - 27.0 °F 28% 30.00 in 10.0 mi WNW 8.1 mph - N/A   Mostly Cloudy
2:55 PM 61.0 °F - 24.6 °F 25% 29.99 in 10.0 mi SW 8.1 mph 19.6 mph N/A   Overcast
3:15 PM 61.7 °F - 26.4 °F 26% 29.99 in 10.0 mi West 9.2 mph - N/A   Mostly Cloudy
3:35 PM 61.2 °F - 22.6 °F 23% 29.99 in 10.0 mi WSW 6.9 mph 12.7 mph N/A   Scattered Clouds
3:55 PM 61.3 °F - 24.6 °F 25% 29.98 in 10.0 mi WNW 6.9 mph - N/A   Scattered Clouds
4:15 PM 61.2 °F - 25.2 °F 25% 29.98 in 10.0 mi SSW 11.5 mph - N/A   Mostly Cloudy
4:35 PM 61.7 °F - 26.6 °F 26% 29.99 in 10.0 mi West 10.4 mph - N/A   Mostly Cloudy
4:55 PM 60.8 °F - 24.8 °F 25% 29.99 in 10.0 mi West 9.2 mph - N/A   Scattered Clouds
5:15 PM 60.4 °F - 24.8 °F 26% 29.99 in 10.0 mi WSW 9.2 mph - N/A   Clear
5:35 PM 62.1 °F - 25.5 °F 25% 29.99 in 10.0 mi West 8.1 mph 16.1 mph N/A   Clear
5:55 PM 62.1 °F - 25.3 °F 25% 29.99 in 10.0 mi West 9.2 mph - N/A   Clear
6:15 PM 61.7 °F - 24.6 °F 24% 29.99 in 10.0 mi West 8.1 mph - N/A   Clear
6:35 PM 61.7 °F - 23.9 °F 24% 29.98 in 10.0 mi WSW 4.6 mph - N/A   Clear
6:55 PM 61.0 °F - 27.0 °F 27% 29.99 in 10.0 mi WSW 6.9 mph - N/A   Clear
7:15 PM 60.8 °F - 26.1 °F 27% 29.99 in 10.0 mi SW 5.8 mph - N/A   Clear
7:35 PM 60.3 °F - 27.5 °F 29% 29.99 in 10.0 mi WSW 4.6 mph - N/A   Scattered Clouds
7:55 PM 59.2 °F - 27.7 °F 30% 29.99 in 10.0 mi WSW 4.6 mph - N/A   Clear
8:15 PM 57.6 °F - 28.8 °F 33% 29.99 in 10.0 mi WSW 3.5 mph - N/A   Clear
8:35 PM 58.1 °F - 27.3 °F 31% 30.00 in 10.0 mi SSW 3.5 mph - N/A   Clear
8:55 PM 56.3 °F - 28.0 °F 34% 30.00 in 10.0 mi Calm Calm - N/A   Clear
9:15 PM 51.6 °F - 34.5 °F 52% 30.00 in 10.0 mi South 3.5 mph - N/A   Clear
9:35 PM 52.5 °F - 32.9 °F 47% 30.00 in 10.0 mi South 3.5 mph - N/A   Clear
9:55 PM 51.6 °F - 32.7 °F 49% 30.01 in 10.0 mi South 3.5 mph - N/A   Clear
10:15 PM 50.4 °F - 33.3 °F 52% 30.01 in 10.0 mi South 3.5 mph - N/A   Clear
10:35 PM 50.0 °F - 32.0 °F 50% 30.01 in 10.0 mi Calm Calm - N/A   Clear
10:55 PM 49.6 °F - 32.0 °F 51% 30.01 in 10.0 mi South 3.5 mph - N/A   Scattered Clouds
11:15 PM 48.2 °F - 31.8 °F 53% 30.01 in 10.0 mi South 3.5 mph - N/A   Scattered Clouds
11:35 PM 45.7 °F - 35.6 °F 68% 30.02 in 10.0 mi Calm Calm - N/A   Clear
11:55 PM 46.6 °F - 32.4 °F 58% 30.02 in 10.0 mi Calm Calm - N/A   Clear